Regional Weather Roundup
Issued by NWS Charleston, SC

Current Version | Previous Version | Graphics & Text | Print | Product List | Glossary On
Versions: 1 2 3 4 5 6 7 8 9 10 11 12 13 14 15 16 17 18 19 20 21 22 23 24 25 26 27 28 29 30 31 32 33 34 35 36 37 38 39 40 41 42 43 44 45 46 47 48 49 50
000
ASUS42 KCHS 040712
RWRCHS

REGIONAL WEATHER ROUNDUP
NATIONAL WEATHER SERVICE CHARLESTON SC
200 AM EST SUN DEC 04 2016

NOTE: "FAIR" INDICATES FEW OR NO CLOUDS BELOW 12,000 FEET WITH NO
SIGNIFICANT WEATHER AND/OR OBSTRUCTIONS TO VISIBILITY.

NOT ALL STATIONS ARE QUALITY CONTROLLED. USE DATA WITH CAUTION...
ESPECIALLY DEWPOINT OBSERVATIONS.

SCZ027-030-031-034>040-042>050-040800-
...SOUTHEAST SOUTH CAROLINA...

CITY           SKY/WX    TMP DP  RH WIND       PRES   REMARKS
N CHARLESTON   LGT RAIN  51  36  56 NE6       30.23R
WATERFRONT PRK   N/A     52  42  69 NE7       30.21S
MOUNT PLEASANT NOT AVBL
JOHNS ISLAND   CLOUDY    52  41  66 N5        30.22S
PINOPOLIS        N/A     48  39  71 VRB3      30.15S
MONCKS CORNER  CLOUDY    46  37  71 CALM      30.23R
SUMMERVILLE    PTSUNNY   50  41  71 CALM      30.23S
BEAUFORT MCAS  CLOUDY    54  42  64 E5        30.21S
BEAUFORT ARPT  PTSUNNY   54  43  66 NE5       30.21S
HILTON HEAD IS CLOUDY    55  45  67 N5        30.21S
WALTERBORO     CLOUDY    50  43  76 CALM      30.23S
ALLENDALE      PTSUNNY   48  43  81 CALM      30.22R

...SOUTHERN MIDLANDS AND PEE DEE...

CITY           SKY/WX    TMP DP  RH WIND       PRES   REMARKS
GEORGETOWN     NOT AVBL
KINGSTREE      CLOUDY    46  36  66 CALM      30.24R
ORANGEBURG     CLOUDY    49  42  77 N3        30.24R
BARNWELL       NOT AVBL
AIKEN          LGT RAIN  45  43  93 CALM      30.27S
MANNING        NOT AVBL
COLUMBIA       LGT RAIN  48  45  89 W3        30.25R
SUMTER         CLOUDY    47  42  82 CALM      30.22R
FLORENCE       CLOUDY    47  42  83 CALM      30.24S
MYRTLE BEACH   CLOUDY    48  34  57 NE7       30.24F
N MYRTLE BEACH CLOUDY    47  37  68 NE7       30.22F

$$

GAZ063-065-086>088-099>101-113>116-118-119-134>141-150-040800-
...SOUTHEAST GEORGIA...

CITY           SKY/WX    TMP DP  RH WIND       PRES   REMARKS
SAVANNAH ARPT  CLOUDY    53  41  63 NE8       30.20F
HUNTER AAF     CLOUDY    54  48  80 E5        30.17F
FORT STEWART   CLOUDY    53  42  66 CALM      30.17F
STATESBORO     CLOUDY    52  43  72 CALM      30.20R
SYLVANIA       CLOUDY   N/A N/A N/A CALM      30.21S
CLAXTON        PTSUNNY   52  46  78 E5        30.19F

...CSRA...CENTRAL AND FAR SOUTHEAST GEORGIA...

CITY           SKY/WX    TMP DP  RH WIND       PRES   REMARKS
THOMSON        CLOUDY    48  48 100 CALM      30.25F
AUGUSTA-BUSH   CLOUDY    50  44  80 N3        30.24R
AUGUSTA-DANIEL CLOUDY    50  41  71 NE6       30.23S
SWAINSBORO     PTSUNNY   52  41  66 NE3       30.20S
VIDALIA        CLOUDY    54  46  76 E8        30.17F
EASTMAN        PTSUNNY   56  32  40 CALM      30.19S
HAZLEHURST     FAIR      55  43  64 SE6       30.14F
ALMA           CLOUDY    53  44  71 E7        30.15F
WAYCROSS       CLOUDY    56  52  87 E7        30.17F
JESUP          CLOUDY    52  50  93 CALM      30.18F
BAXLEY         MOCLDY    54  46  76 E6        30.16F
BRUNSWICK      CLEAR     57  52  82 NE6       30.19S
SAINT SIMONS   CLEAR     60  49  66 NE12      30.18S

$$

SCZ027-028-034-036>038-045-046-048>050-GAZ119-141-040800-
...LAKE AND SUPPLEMENTAL COASTAL OBSERVATIONS...

STATION/POSITION TIME  TEMP    WIND        PRES    WAVE   SWELL
                       AIR SEA DIR/SP/G            HT/PER HT/PER/DIR
                 (UTC) (F)     (DEG/KT/KT) (MB)    (FT/S) (FT/S/D)
WINYAH BAY       0545   49      10/  5     1023.0
LAKE MURRAY      0620   49      CALM  /  2 1023.4R
ACE BASIN NERRS  0545   52      50/  1     1023.0
FORT PULASKI     0636   58 62   70/  9/ 11 1022.8R
SAPELO ISLAND    0600   58      60/ 10     1022.0

$$

ANZ835-935-AMZ111-154-330-350-352-354-370-450-454-472-040800-
...C-MAN AND BUOY OBSERVATIONS...

STATION/POSITION TIME  TEMP    WIND        PRES    WAVE   SWELL
                       AIR SEA DIR/SP/G            HT/PER HT/PER/DIR
                 (UTC) (F)     (DEG/KT/KT) (MB)    (FT/S) (FT/S/D)
BUOY 41004       0650   60 74   50/ 12/ 16 1022.0F   3/ 6   2/ 60/ 6
BUOY 41008       0650   62 64   80/ 16/ 19 1021.4R   4/ 5   2/120/ 8
FOLLY BEACH CMAN 0600   54      60/  9/ 11 1023.7F
CAPERS NEARSHORE 0608   55 62   60/ 10/ 14 1023.1F
FRIPP NEARSHORE  0608   58 62   80/ 12/ 16 1022.6F


STATION/POSITION TIME  TEMP    WIND        PRES    WAVE   SWELL
                       AIR SEA DIR/SP/G            HT/PER HT/PER/DIR
                 (UTC) (F)     (DEG/KT/KT) (MB)    (FT/S) (FT/S/D)
5E ST. MARYS GA  0700      66                N/A     5/ 6
FRYING PAN BUOY  0650   57 73   30/ 10/ 14 1022.9F   3/ 8   2/ 90/ 8
BUOY 41025       0650   52 75  360/ 14/ 17 1024.3F   5/ 9   3/ 60/ 9
CAPE LOOKOUT NC  0600   49      10/  6/  8 1024.2F
BUOY 41002       0650   64 73   30/  8/ 12 1021.8F   5/ 9   5/ 50/ 9
BUOY 41010       NOT AVBL
ST AUGUSTINE FL  0700   68 66  110/  8/  9 1021.5R


$$



USA.gov is the U.S. government's official web portal to all federal, state and local government web resources and services.